This demonstration page uses our WeatherBlox Daily Observations layout. Learn more.

Left ArrowRight Arrow

39.51506, -84.39828

Hourly Observations for January 9, 2015

Temp ( °F °C ) Dew Point ( °F °C ) Humidity (%) Winds ( mph kmh ) Pressure ( in mb ) Visibility ( mi km ) Precip ( " mm )
12:15 am 00:15 Cloudy 24 -4.2 3 -16.3 39 39 WSW 22 35 30.03 1017 10 16 0.00 0.00
12:35 am 00:35 Cloudy 24 -4.2 5 -15.2 42 42 WSW 17 28 30.03 1017 10 16 0.00 0.00
12:55 am 00:55 Cloudy 26 -3.5 6 -14.5 43 43 WSW 22 35 30.03 1017 10 16 0.00 0.00
1:15 am 01:15 Cloudy 26 -3.3 7 -13.9 44 44 SW 17 28 30.03 1017 10 16 0.00 0.00
1:35 am 01:35 Cloudy 27 -2.8 8 -13.1 45 45 WSW 22 35 30.03 1017 10 16 0.00 0.00
1:55 am 01:55 Cloudy 27 -2.8 8 -13.1 45 45 WSW 23 37 30.03 1017 10 16 0.00 0.00
2:15 am 02:15 Cloudy 27 -2.8 10 -12.5 48 48 WSW 22 35 30.06 1018 7 11 0.00 0.00
2:35 am 02:35 Cloudy 27 -2.8 9 -12.6 47 47 WSW 17 28 30.06 1018 10 16 0.00 0.00
2:55 am 02:55 Cloudy 27 -2.8 9 -12.8 46 46 WSW 20 31 30.06 1018 10 16 0.00 0.00
3:15 am 03:15 Cloudy 27 -2.8 9 -12.7 47 47 WSW 15 24 30.06 1018 10 16 0.00 0.00
3:35 am 03:35 Cloudy 27 -2.8 9 -12.6 47 47 WSW 21 33 30.06 1018 10 16 0.00 0.00
3:55 am 03:55 Cloudy 27 -2.8 10 -12.4 48 48 WSW 22 35 30.09 1019 10 16 0.00 0.00
4:15 am 04:15 Cloudy 27 -2.8 10 -12.4 48 48 WSW 13 20 30.09 1019 10 16 0.00 0.00
4:35 am 04:35 Cloudy 27 -2.8 11 -11.9 50 50 WSW 23 37 30.09 1019 10 16 0.00 0.00
4:55 am 04:55 Windy with Snow Likely 25 -4.1 15 -9.5 66 66 W 23 37 30.12 1020 2 2 0.00 0.00
5:15 am 05:15 Cloudy with Light Snow 22 -5.6 14 -10 71 71 WNW 13 20 30.15 1021 2 3 0.00 0.00
5:35 am 05:35 Cloudy with Haze 20 -6.5 7 -13.9 56 56 WNW 17 28 30.15 1021 5 8 0.00 0.00
5:55 am 05:55 Cloudy 19 -7 6 -14.3 56 56 WNW 20 31 30.21 1023 7 11 0.00 0.00
6:15 am 06:15 Mostly Cloudy 18 -8 4 -15.5 55 55 WNW 14 22 30.21 1023 10 16 0.00 0.00
6:35 am 06:35 Clear 17 -8.5 4 -15.5 57 57 WNW 14 22 30.24 1024 10 16 0.00 0.00
6:55 am 06:55 Mostly Cloudy 17 -8.5 5 -15 60 60 W 13 20 30.27 1025 10 16 0.00 0.00
7:15 am 07:15 Cloudy 16 -9.1 5 -15 63 63 WNW 13 20 30.27 1025 10 16 0.00 0.00
7:35 am 07:35 Cloudy 14 -9.8 4 -15.8 62 62 W 15 24 30.27 1025 10 16 0.00 0.00
7:55 am 07:55 Mostly Cloudy 14 -9.8 3 -16 61 61 W 10 17 30.30 1026 10 16 0.00 0.00
8:15 am 08:15 Mostly Cloudy 14 -9.8 3 -16 61 61 W 15 24 30.30 1026 10 16 0.00 0.00
8:35 am 08:35 Partly Cloudy 14 -9.8 4 -15.8 62 62 W 12 19 30.33 1027 10 16 0.00 0.00
8:55 am 08:55 Partly Cloudy 14 -9.8 3 -16.1 60 60 W 12 19 30.33 1027 10 16 0.00 0.00
9:15 am 09:15 Sunny 14 -9.8 2 -16.5 58 58 W 13 20 30.36 1028 10 16 0.00 0.00
9:35 am 09:35 Sunny 14 -9.8 2 -16.6 58 58 W 14 22 30.36 1028 10 16 0.00 0.00
9:55 am 09:55 Sunny 14 -9.8 2 -16.8 57 57 WNW 14 22 30.39 1029 10 16 0.00 0.00
10:15 am 10:15 Mostly Cloudy 16 -9.1 3 -16.2 57 57 W 16 26 30.39 1029 10 16 0.00 0.00
10:35 am 10:35 Cloudy with Haze 14 -9.8 3 -16.1 60 60 W 20 31 30.39 1029 5 8 0.00 0.00
10:55 am 10:55 Cloudy 15 -9.5 2 -16.7 56 56 W 15 24 30.39 1029 7 11 0.00 0.00
11:15 am 11:15 Mostly Cloudy 17 -8.5 3 -16.3 54 54 W 17 28 30.39 1029 10 16 0.00 0.00
11:35 am 11:35 Mostly Cloudy 16 -9.1 2 -16.4 56 56 W 16 26 30.39 1029 10 16 0.00 0.00
11:55 am 11:55 Mostly Cloudy with Haze 15 -9.2 3 -15.9 59 59 W 18 30 30.39 1029 3 4 0.00 0.00
12:15 pm 12:15 Mostly Cloudy 16 -8.7 3 -16.2 55 55 W 17 28 30.39 1029 7 11 0.00 0.00
12:35 pm 12:35 Partly Cloudy 17 -8.5 2 -16.9 51 51 W 23 37 30.39 1029 10 16 0.00 0.00
12:55 pm 12:55 Partly Cloudy 17 -8.5 0 -17.9 47 47 WSW 17 28 30.39 1029 10 16 0.00 0.00
1:15 pm 13:15 Partly Cloudy 17 -8.5 1 -17.1 50 50 W 15 24 30.39 1029 10 16 0.00 0.00
1:35 pm 13:35 Cloudy 17 -8.6 2 -16.6 53 53 W 14 22 30.36 1028 10 16 0.00 0.00
1:55 pm 13:55 Cloudy 17 -8.5 2 -16.4 53 53 W 13 20 30.36 1028 10 16 0.00 0.00
2:15 pm 14:15 Mostly Cloudy 17 -8.3 1 -17.5 48 48 W 12 19 30.39 1029 10 16 0.00 0.00
2:35 pm 14:35 Partly Cloudy 18 -8 0 -18 45 45 W 18 30 30.39 1029 10 16 0.00 0.00
2:55 pm 14:55 Sunny 17 -8.4 -2 -18.7 44 44 W 18 30 30.39 1029 10 16 0.00 0.00
3:15 pm 15:15 Sunny 18 -8 -1 -18.4 43 43 W 14 22 30.39 1029 10 16 0.00 0.00
3:35 pm 15:35 Partly Cloudy 17 -8.1 0 -17.8 46 46 WNW 9 15 30.39 1029 10 16 0.00 0.00
3:55 pm 15:55 Sunny 17 -8.5 -1 -18.2 46 46 W 13 20 30.42 1030 10 16 0.00 0.00
4:15 pm 16:15 Sunny 17 -8.5 -2 -19 43 43 W 13 20 30.42 1030 10 16 0.00 0.00
4:35 pm 16:35 Sunny 17 -8.5 -3 -19.3 42 42 WNW 12 19 30.42 1030 10 16 0.00 0.00
4:55 pm 16:55 Sunny 17 -8.5 -2 -19 43 43 WNW 9 15 30.42 1030 10 16 0.00 0.00
5:15 pm 17:15 Sunny 15 -9.2 -2 -19.1 45 45 W 10 17 30.42 1030 10 16 0.00 0.00
5:35 pm 17:35 Clear 14 -9.8 -3 -19.5 45 45 WNW 9 15 30.42 1030 10 16 0.00 0.00
5:55 pm 17:55 Clear 14 -9.8 -3 -19.4 46 46 WNW 12 19 30.45 1031 10 16 0.00 0.00
6:15 pm 18:15 Clear 14 -9.8 -3 -19.2 47 47 WNW 9 15 30.45 1031 10 16 0.00 0.00
6:35 pm 18:35 Clear 13 -10.3 -3 -19.6 47 47 WNW 10 17 30.48 1032 10 16 0.00 0.00
6:55 pm 18:55 Clear 12 -11.2 -4 -20 49 49 W 9 15 30.48 1032 10 16 0.00 0.00
7:15 pm 19:15 Clear 12 -11.2 -4 -19.8 49 49 WNW 8 13 30.50 1033 10 16 0.00 0.00
7:35 pm 19:35 Clear 12 -11.2 -4 -19.9 49 49 W 10 17 30.50 1033 10 16 0.00 0.00
7:55 pm 19:55 Clear 12 -11.2 -4 -20 49 49 W 9 15 30.50 1033 10 16 0.00 0.00
8:15 pm 20:15 Clear 12 -11.3 -4 -20.1 49 49 W 7 11 30.50 1033 10 16 0.00 0.00
8:35 pm 20:35 Clear 10 -12.3 -5 -20.6 50 50 W 7 11 30.53 1034 10 16 0.00 0.00
8:55 pm 20:55 Clear 9 -12.6 -5 -20.6 52 52 W 5 7 30.53 1034 10 16 0.00 0.00
9:15 pm 21:15 Clear 9 -12.6 -5 -20.3 53 53 W 6 9 30.53 1034 10 16 0.00 0.00
9:35 pm 21:35 Clear 9 -12.6 -4 -20.1 54 54 W 6 9 30.59 1036 10 16 0.00 0.00
9:55 pm 21:55 Clear 9 -12.6 -4 -19.9 55 55 W 5 7 30.59 1036 10 16 0.00 0.00
10:15 pm 22:15 Clear 9 -12.6 -3 -19.5 57 57 W 6 9 30.59 1036 10 16 0.00 0.00
10:35 pm 22:35 Clear 9 -12.6 -3 -19.3 58 58 W 5 7 30.59 1036 10 16 0.00 0.00
10:55 pm 22:55 Clear 9 -12.6 -2 -19 59 59 W 6 9 30.59 1036 10 16 0.00 0.00
11:15 pm 23:15 Clear 9 -12.6 -2 -18.9 60 60 W 7 11 N/A 10 16 0.00 0.00
11:35 pm 23:35 Clear 9 -12.6 -2 -19 59 59 WNW 5 7 30.59 1036 10 16 0.00 0.00
11:55 pm 23:55 Clear 9 -12.6 -3 -19.2 58 58 WNW 3 6 30.59 1036 10 16 0.00 0.00

Powered by AerisWeather